Theta_e
292 291 292 292 291 292 292 293 293 293 293 295 295 298 298 298 297 296 297 298 300 301 300 300 301 301 301 301 300 299 300 301 300 300 301 299 297 298 297 297 297 297 298 299 299 299 300 301 302 303 304 304 305 305 305 305 304 304 303 303 303 303
291 292 293 294 294 293 292 293 292 293 295 294 295 296 296 295 296 295 297 297 298 299 297 297 299 300 300 300 300 300 300 301 300 300 298 299 298 298 297 297 297 296 296 296 297 298 299 300 301 301 302 302 303 303 301 300 301 302 301 300 299 301
293 293 291 290 289 289 290 291 293 294 293 294 294 295 296 296 297 296 298 296 297 296 297 298 297 298 298 298 298 299 300 300 298 298 298 293 297 295 296 296 297 297 296 296 296 297 298 298 299 297 298 298 299 298 298 297 297 297 297 296 295 295
293 293 293 290 289 293 293 294 291 293 294 295 294 294 296 296 297 296 297 296 297 296 297 296 295 297 296 296 297 297 298 297 296 296 292 295 296 294 296 296 296 294 294 295 295 295 295 297 299 296 294 295 295 296 298 298 296 296 296 295 295 294
291 291 291 291 289 290 290 291 293 294 294 293 292 292 296 296 297 296 295 295 295 295 294 293 294 294 293 294 295 295 295 295 292 292 294 295 293 291 294 294 293 294 293 294 293 294 294 295 295 294 293 294 295 295 295 296 295 296 296 295 295 295
289 287 290 291 290 288 291 292 291 292 292 292 291 292 294 294 295 293 293 293 293 292 291 293 293 291 292 293 295 294 294 294 293 292 293 294 292 292 291 291 293 293 293 293 293 292 293 293 293 293 293 294 294 294 295 295 294 294 295 295 295 294
290 292 292 291 290 288 288 289 290 289 290 290 291 293 293 293 292 291 292 291 293 292 292 292 291 291 292 293 293 293 294 293 293 292 293 293 292 292 290 290 290 292 292 293 293 293 292 292 293 293 293 292 292 294 294 295 294 294 294 294 295 293
295 296 295 295 294 293 292 291 289 289 289 290 290 291 292 292 289 290 291 291 291 293 291 292 291 292 293 293 293 293 292 291 290 291 291 292 293 292 290 291 290 291 292 292 292 292 292 292 292 293 293 293 291 292 293 293 293 293 293 293 293 293
294 293 294 294 293 292 292 291 291 290 289 290 290 289 290 290 288 289 290 291 290 293 293 293 293 293 292 292 292 290 290 290 289 290 291 289 290 291 291 290 290 289 290 291 291 291 291 291 292 292 293 292 291 292 292 292 292 292 292 292 292 292
292 293 293 292 293 292 293 292 291 290 290 291 291 289 288 289 288 289 290 289 291 292 294 294 292 291 292 291 290 290 290 289 289 289 288 287 289 290 291 291 291 290 289 290 290 290 290 290 291 292 292 291 290 290 291 291 291 291 291 290 291 290
292 292 292 292 291 292 292 292 293 293 293 292 292 290 290 288 288 289 289 289 290 293 294 294 291 290 289 289 290 290 290 289 289 288 288 289 289 290 290 291 290 290 290 289 289 289 289 290 291 292 292 291 291 291 291 291 291 290 290 290 290 289
290 290 290 291 291 291 292 292 293 293 292 292 292 292 291 288 288 288 289 289 291 292 292 291 290 290 289 289 290 290 289 289 288 287 288 289 289 289 289 289 289 290 290 290 289 289 289 290 291 290 291 292 291 291 291 291 290 290 289 289 288 288
288 289 290 291 291 291 291 292 292 291 291 292 292 292 291 289 289 288 288 290 291 290 290 290 290 289 290 290 289 288 288 288 287 287 288 288 288 288 288 288 288 288 289 289 289 288 288 289 289 290 292 293 293 291 290 290 290 289 289 289 288 288
289 290 290 290 290 290 290 290 290 289 290 291 291 291 289 289 288 289 289 289 289 289 290 289 289 289 289 288 289 288 288 287 286 287 287 287 287 287 287 287 288 288 288 288 288 288 288 288 289 291 292 292 293 292 289 289 289 288 289 289 288 288
289 288 289 289 290 289 289 288 287 288 289 289 289 288 288 289 288 288 289 289 288 289 288 288 288 289 288 289 288 288 287 287 287 287 287 287 288 285 286 287 287 288 287 287 288 288 288 288 290 291 292 292 292 293 291 289 288 288 288 288 288 287
289 289 288 288 288 287 287 286 287 288 288 287 287 287 288 288 289 288 288 288 288 288 288 287 287 288 288 288 287 286 286 286 287 288 287 287 286 287 287 286 287 287 287 287 287 288 287 287 289 291 291 291 291 292 292 288 287 287 287 287 287 286
288 288 289 289 288 287 287 288 287 287 287 287 287 287 287 287 287 287 287 287 287 287 287 287 287 287 288 287 287 286 287 287 287 287 287 287 287 287 287 287 286 287 286 286 286 286 286 287 289 290 291 291 291 292 291 288 287 286 286 286 286 285
287 287 288 288 287 287 287 287 287 286 286 286 286 287 287 287 287 288 288 288 288 287 287 286 287 287 287 287 286 286 287 287 287 287 287 286 286 286 285 286 285 286 286 285 285 285 285 286 289 290 290 291 291 291 289 287 286 286 285 285 284 284
286 287 286 286 286 286 287 287 286 285 285 286 287 286 287 287 287 287 288 287 288 287 287 286 286 287 287 286 286 287 287 287 287 287 285 285 286 285 285 285 285 285 285 284 284 284 285 284 287 289 289 290 291 290 288 286 286 285 285 284 283 283
286 286 284 285 286 286 286 285 285 284 285 286 286 286 286 286 287 287 287 287 287 287 287 286 286 286 287 286 286 287 287 287 286 286 285 286 286 285 285 284 284 283 283 284 284 284 284 284 285 288 289 290 290 289 287 286 285 284 284 283 282 282
286 286 286 286 287 288 287 285 284 284 285 285 286 285 285 286 287 287 287 287 287 286 286 285 285 285 285 286 287 287 287 287 287 285 281 284 284 285 283 282 283 282 281 282 283 284 284 283 284 287 288 289 290 289 286 286 285 283 282 281 281 281
285 287 287 287 287 287 286 285 285 284 284 285 285 285 286 286 287 287 286 286 286 285 285 285 285 285 285 286 286 286 286 285 283 283 282 282 282 283 281 280 281 281 281 280 281 282 283 282 283 285 288 289 289 290 287 285 283 282 281 280 280 280
284 285 285 286 286 286 285 284 284 284 285 284 284 285 286 286 286 285 285 285 285 285 285 285 284 284 285 284 285 285 284 282 283 281 280 281 280 279 279 279 280 280 280 279 279 279 280 282 283 285 287 288 289 290 288 284 283 283 281 280 280 280
283 284 284 285 286 285 284 282 282 283 283 283 284 285 286 285 285 285 284 284 284 284 284 284 284 282 283 283 282 282 283 279 279 280 280 278 277 279 279 277 278 279 279 277 277 278 280 283 284 284 285 287 288 289 289 284 283 282 281 280 280 280
284 284 285 285 284 284 283 280 281 283 283 283 284 285 285 284 284 283 283 283 283 283 283 283 282 282 281 281 280 280 281 278 276 276 277 277 277 278 278 277 277 276 277 275 276 277 280 282 283 284 284 286 288 289 288 287 284 284 282 280 279 280
283 283 284 284 284 284 283 281 282 283 282 283 285 285 285 284 283 282 282 281 281 282 282 281 280 279 278 278 279 277 279 278 275 275 277 277 278 278 278 277 277 276 276 276 276 278 279 281 282 283 284 285 287 289 288 287 285 285 281 281 280 281
283 283 283 283 284 284 283 280 281 281 281 283 283 283 283 283 282 281 281 281 281 281 280 279 278 277 277 276 276 278 278 277 274 277 276 277 277 278 278 277 277 277 277 277 277 278 279 280 282 282 284 285 286 288 288 287 286 285 284 281 281 282
281 280 281 282 280 283 283 281 278 280 282 282 282 282 281 280 279 279 280 280 281 280 279 277 278 277 276 275 275 277 278 279 278 279 277 277 278 278 278 277 277 277 277 277 278 279 280 280 281 282 283 284 285 286 286 286 285 284 284 282 282 283
281 281 281 281 281 279 282 282 282 281 282 282 282 281 280 279 278 278 279 280 280 280 278 277 278 278 277 274 275 276 277 278 278 278 279 278 278 277 277 278 277 278 278 279 279 279 279 280 281 281 282 283 284 284 284 284 284 284 283 282 282 283
279 279 280 280 281 281 281 281 281 281 281 281 281 280 278 278 278 278 279 279 279 279 278 277 278 278 278 276 276 277 277 277 278 278 279 279 279 278 278 278 278 279 279 280 280 279 279 279 280 281 282 283 283 283 283 283 282 282 281 281 282 283
278 278 279 279 280 280 280 280 280 281 281 281 280 279 277 278 278 278 278 279 278 278 277 277 277 277 277 277 276 276 278 279 278 279 279 279 280 281 281 280 281 281 281 281 280 279 279 279 280 281 284 283 284 283 282 281 281 281 281 282 283 283
277 277 278 278 279 279 279 279 279 279 279 279 279 277 276 277 277 277 278 279 279 278 278 277 277 276 276 276 276 276 276 279 281 280 279 279 282 283 284 284 282 282 282 281 281 281 280 280 281 284 285 284 284 284 284 283 283 283 282 283 285 283
276 276 275 276 277 277 277 278 278 278 279 279 278 276 276 275 276 277 278 278 278 279 278 278 277 277 276 275 275 275 276 276 278 283 284 283 282 283 284 284 285 284 283 282 280 282 283 283 284 285 285 285 285 285 284 284 284 284 284 285 283 282
272 272 272 273 274 274 276 276 277 277 278 278 277 276 276 275 275 276 277 278 278 279 278 278 277 277 276 276 275 275 276 276 277 277 282 284 284 284 284 284 284 284 284 283 282 281 281 283 284 285 285 285 285 284 284 284 285 284 285 285 285 280
269 270 270 271 271 273 274 275 276 276 276 277 277 276 275 275 275 275 276 277 278 278 278 278 277 277 276 276 276 275 276 276 276 277 277 279 283 284 284 284 284 284 283 283 283 283 282 283 284 285 285 285 284 284 284 284 285 285 285 285 282 279
267 268 268 269 271 273 274 274 275 276 276 276 276 275 274 274 275 275 276 277 277 278 278 278 278 278 278 278 277 277 277 277 278 277 278 278 279 280 282 284 284 284 284 284 283 283 283 283 284 285 285 284 284 284 284 284 284 285 286 284 280 279
266 267 269 271 272 274 274 274 274 275 275 275 275 274 273 274 274 275 275 276 277 278 278 279 280 279 279 279 278 278 278 278 278 279 279 279 279 278 278 279 281 283 284 282 283 283 283 283 284 285 285 285 285 285 285 284 283 282 282 281 279 278
266 268 270 272 273 273 271 271 273 274 274 274 273 272 272 273 273 274 275 276 277 279 279 280 280 280 280 280 280 279 279 279 279 279 279 280 280 279 279 279 280 281 282 283 282 283 283 283 284 285 285 285 285 285 285 281 280 280 279 278 277 276
Wind_Speed
5 5 6 5 4 4 5 6 5 4 5 4 5 8 7 5 5 5 5 5 6 6 7 6 7 6 7 6 6 5 7 8 7 8 8 5 4 5 5 6 7 7 7 7 8 7 8 8 8 7 8 7 8 9 8 7 7 8 9 9 9 10
5 5 5 7 6 6 5 5 4 6 6 5 6 6 6 5 6 5 6 6 6 7 5 5 6 6 7 7 7 8 9 8 7 7 6 7 5 6 6 7 7 7 8 7 8 8 7 8 7 7 7 7 8 8 7 6 6 8 9 8 7 7
7 7 5 4 4 3 4 4 5 6 5 6 5 7 6 6 7 6 7 5 7 6 8 7 6 7 6 6 7 8 8 7 6 6 6 4 7 5 7 7 8 8 8 8 8 8 8 8 8 6 6 7 8 7 7 6 7 8 7 6 7 6
7 7 7 5 5 7 7 6 4 6 7 6 5 4 7 6 8 6 7 6 6 7 7 7 6 7 5 6 7 8 8 6 6 6 5 7 7 7 8 9 8 7 7 8 8 8 8 8 8 7 6 8 8 8 7 7 7 8 8 7 9 7
6 6 7 7 6 8 7 7 6 7 7 7 6 5 11 6 8 5 5 5 5 6 5 5 6 5 6 8 7 8 8 7 6 5 7 8 7 6 8 8 8 8 8 8 8 8 8 8 8 6 7 8 8 8 7 7 7 9 9 9 9 8
6 5 5 5 5 5 6 6 7 8 8 7 5 7 10 8 6 5 5 5 6 5 5 6 6 5 6 8 9 10 10 9 8 7 8 9 6 8 7 7 7 7 8 8 8 8 8 8 7 7 7 8 8 8 8 8 8 8 9 9 9 8
4 5 4 4 3 3 5 6 7 6 6 5 6 8 8 7 5 5 6 5 7 6 6 7 6 7 8 10 9 10 9 8 8 8 11 9 8 8 6 7 6 7 8 9 9 8 9 9 8 8 8 7 6 7 8 8 8 8 9 9 9 8
9 11 11 10 10 8 7 7 6 5 5 7 5 7 8 7 4 5 5 5 6 7 7 8 6 9 11 10 9 9 7 6 6 7 6 7 9 7 7 8 7 8 9 8 8 8 9 8 8 9 9 8 7 7 8 8 8 8 8 8 8 7
13 11 11 10 9 8 8 7 7 6 5 7 6 5 6 6 4 5 5 5 5 7 9 9 9 8 8 8 8 6 6 6 6 6 8 5 6 7 8 7 8 7 7 8 8 8 8 8 8 8 8 7 7 7 8 8 8 8 7 7 8 7
10 10 9 10 11 11 10 8 6 6 6 7 7 5 5 5 4 5 5 4 6 8 11 9 7 6 7 6 5 6 6 6 6 7 6 5 7 8 8 8 9 8 8 9 8 8 7 7 7 7 7 6 6 7 7 7 8 8 7 7 7 7
8 10 10 10 9 10 10 10 10 9 9 7 7 7 7 5 4 5 5 5 7 9 8 7 5 5 5 5 6 7 7 6 6 5 6 7 9 9 9 8 8 8 8 8 7 7 7 8 8 7 7 7 7 7 8 8 9 9 8 8 7 7
7 8 8 9 10 11 11 11 11 10 10 10 8 8 7 5 5 5 6 6 8 8 6 6 6 6 5 6 7 7 6 6 6 6 7 8 8 7 7 7 7 8 9 8 8 7 7 8 6 8 11 10 8 7 7 7 8 7 7 7 7 7
5 7 9 10 10 10 10 9 9 10 10 9 10 9 8 7 7 5 5 8 7 6 6 6 7 5 6 7 6 6 6 6 5 6 7 7 7 7 7 6 7 8 7 8 8 8 8 7 6 10 10 11 14 9 8 8 8 8 8 7 8 8
8 8 8 9 9 8 8 10 10 9 10 10 10 10 9 8 7 7 8 7 7 7 7 7 6 6 7 6 7 6 6 5 5 7 7 7 8 8 6 7 9 8 8 7 8 8 8 8 9 12 10 11 15 13 9 7 7 7 7 7 8 7
6 7 7 6 8 8 8 7 8 9 10 11 11 10 9 9 7 8 8 8 7 8 7 7 7 7 7 7 7 6 5 6 6 7 7 9 8 5 7 9 8 9 8 8 9 9 9 8 10 14 12 10 13 15 12 7 7 6 7 7 7 7
7 7 6 6 7 6 6 6 6 7 8 8 8 8 8 8 10 7 8 7 7 8 7 6 7 8 8 7 6 5 5 6 9 8 7 6 5 7 8 8 9 8 9 9 9 9 8 8 9 12 13 14 15 15 13 7 7 7 7 7 7 6
8 8 10 9 9 9 9 8 5 7 7 6 8 6 8 7 7 8 7 7 7 6 6 7 7 8 8 7 6 6 7 7 7 7 7 7 8 8 9 9 9 9 8 8 8 8 8 7 10 12 14 14 14 13 13 7 6 6 6 6 6 7
7 8 10 8 8 9 8 9 10 10 11 8 7 9 8 8 9 9 8 9 8 7 6 6 8 8 8 7 7 7 8 7 8 9 7 6 7 7 6 7 6 8 8 8 8 8 9 7 10 12 12 11 11 13 8 6 7 7 6 6 6 7
5 6 6 7 8 8 8 8 8 9 10 11 10 9 9 9 10 10 10 10 9 9 8 7 8 9 8 7 7 8 8 8 9 8 5 6 8 8 8 9 8 8 8 8 8 9 9 7 9 12 13 13 13 10 6 6 6 7 7 7 7 7
5 4 4 7 8 6 5 6 7 8 9 10 9 10 11 9 9 9 9 10 9 9 9 8 7 9 9 8 9 9 9 7 7 7 5 8 8 9 9 7 7 7 7 8 9 9 8 7 8 12 12 13 14 11 7 6 7 7 6 5 5 4
7 8 8 7 9 10 8 6 6 7 10 9 10 9 10 10 10 10 11 12 11 10 9 7 7 7 8 8 9 8 9 8 8 6 4 7 7 8 5 6 7 7 6 6 7 8 9 6 6 10 11 13 13 10 6 6 6 6 6 5 5 4
7 9 11 12 13 12 11 9 9 9 8 10 8 10 10 10 11 11 10 10 10 9 9 7 8 8 7 9 9 8 8 7 6 6 6 6 6 7 6 5 6 7 7 5 6 6 7 6 5 7 11 12 13 14 8 6 7 7 6 6 6 6
4 5 7 8 9 9 8 8 9 11 10 10 10 11 10 10 10 10 11 11 11 11 10 8 6 9 8 6 8 8 7 5 6 6 5 7 6 6 6 6 6 6 7 5 5 5 5 6 6 6 11 13 14 15 13 6 7 5 6 7 8 7
5 6 7 7 7 7 6 5 7 8 8 9 11 11 9 9 10 10 10 11 11 11 11 10 9 6 7 7 5 8 8 5 5 5 5 5 5 6 7 5 5 6 6 4 4 4 5 5 7 6 8 12 15 15 16 8 7 9 9 7 5 5
5 6 7 7 6 6 5 5 6 8 8 9 11 9 8 9 9 9 10 10 11 11 11 10 10 9 6 7 5 6 8 5 4 5 4 5 5 6 6 6 5 5 5 4 4 4 4 5 5 8 7 10 14 14 15 17 10 11 8 8 8 8
4 6 6 6 6 5 5 4 6 7 8 12 11 10 11 11 10 9 10 11 11 11 10 10 9 8 7 7 6 5 6 7 5 5 5 5 5 6 7 6 5 5 5 6 6 4 4 4 4 6 8 8 11 13 16 15 14 15 9 7 7 6
8 8 8 6 8 8 5 4 6 7 9 9 7 10 11 12 12 12 12 12 11 10 10 9 9 8 7 7 5 6 7 6 4 6 4 5 5 6 7 6 5 7 7 6 6 6 5 4 4 5 7 10 10 13 14 14 14 14 13 7 4 6
5 5 7 8 5 8 7 5 5 9 11 7 7 9 9 10 11 12 13 13 11 11 9 10 10 7 7 7 5 6 7 6 6 6 5 5 6 6 7 6 6 6 6 7 6 6 6 5 5 5 5 6 8 9 13 13 14 14 13 10 8 10
11 12 10 12 6 5 8 8 7 7 9 10 8 7 9 10 11 12 12 12 12 10 8 8 9 9 7 5 6 6 6 6 6 6 7 6 7 6 7 7 6 7 7 7 7 6 5 6 5 5 5 5 6 5 7 9 9 12 11 7 7 9
10 12 13 13 11 8 9 9 9 8 9 9 9 9 9 9 9 10 12 13 11 10 9 9 10 10 8 7 6 7 7 6 6 7 9 8 8 8 8 7 8 8 9 9 8 6 6 6 6 7 8 8 8 8 8 7 7 8 7 7 7 8
11 11 11 13 10 9 10 9 10 9 11 10 10 9 10 12 12 12 13 12 9 10 8 8 9 8 8 8 7 7 8 7 7 8 9 7 6 8 9 8 9 8 8 8 7 7 8 7 8 10 8 8 9 10 8 8 8 8 7 9 11 8
8 12 14 12 10 10 11 12 10 8 8 8 8 7 8 10 11 12 13 11 10 10 9 8 8 8 8 8 8 8 8 8 10 9 8 8 8 12 12 8 8 6 5 6 6 6 8 7 5 5 11 12 13 14 13 11 11 11 9 13 18 11
10 10 12 12 11 12 12 12 12 10 10 8 8 7 9 8 9 10 11 10 10 10 9 9 9 8 7 7 8 7 8 8 7 11 15 14 10 10 12 11 12 9 8 7 6 3 4 4 7 13 14 16 17 16 15 15 15 16 16 19 14 10
13 13 14 13 12 12 12 13 11 9 10 10 8 8 9 9 9 11 12 11 10 11 10 9 9 9 8 8 6 7 7 7 9 8 7 10 10 10 11 10 10 10 11 12 10 7 3 7 12 15 18 18 19 18 18 18 19 20 20 21 16 9
13 13 13 13 14 15 14 13 11 8 8 9 10 10 11 11 10 11 13 12 11 10 11 9 9 8 8 8 8 7 7 7 8 9 9 5 8 12 12 12 12 12 12 12 14 15 11 9 11 17 19 20 20 21 20 20 21 22 23 23 14 10
13 13 13 14 15 15 14 14 11 9 10 10 11 10 10 12 12 12 11 11 12 12 11 10 9 9 9 8 8 8 7 8 8 8 8 8 6 6 9 12 13 13 13 13 13 13 13 12 14 16 18 20 19 20 20 20 16 21 24 18 10 10
15 14 14 15 15 14 13 13 12 12 12 11 11 11 12 12 12 11 13 16 13 10 11 10 10 9 9 9 8 8 8 8 8 8 8 8 8 9 9 6 7 11 13 10 10 13 15 14 15 17 18 19 18 19 20 18 12 12 13 11 8 9
13 13 13 12 12 14 17 19 13 12 12 12 12 12 12 12 12 12 11 11 11 10 10 10 10 9 9 9 9 8 8 8 7 8 8 8 8 8 7 6 6 5 9 15 11 13 13 14 15 16 16 15 17 19 21 12 10 9 8 7 7 8
Wind_Direction
307 303 300 299 292 300 292 297 301 293 271 255 245 259 256 257 240 222 226 216 222 221 223 220 224 225 231 231 231 227 229 232 227 228 231 232 216 220 216 217 221 219 223 223 229 225 227 226 229 224 226 224 239 242 243 236 227 225 226 225 219 219
293 290 296 309 324 328 314 299 298 281 270 266 260 266 271 274 256 232 229 224 221 230 222 223 216 220 223 224 223 228 230 232 228 230 232 226 217 219 213 218 220 218 222 224 227 228 228 228 227 222 226 224 233 238 240 237 228 229 228 228 224 221
312 310 299 291 298 266 264 260 266 266 272 259 247 253 263 250 246 234 239 222 227 224 226 223 213 224 220 227 225 232 236 237 230 230 227 217 228 207 217 220 221 219 220 223 226 227 227 227 229 222 221 227 236 234 232 233 231 232 234 225 227 223
310 307 314 319 340 327 321 313 326 300 279 273 284 282 276 272 266 234 239 228 229 227 231 226 222 219 217 228 230 234 238 235 230 225 221 226 228 204 220 221 220 218 218 223 226 226 229 231 231 222 215 227 233 240 233 232 225 229 232 220 225 214
271 280 293 302 300 293 298 305 307 293 291 296 289 285 276 262 267 264 246 239 237 241 237 237 239 231 221 223 229 234 234 232 229 213 222 230 229 217 219 219 216 214 216 222 225 225 228 226 230 227 219 225 227 234 237 232 227 231 234 229 229 220
258 278 295 298 304 308 306 305 296 278 270 274 288 274 270 280 276 279 270 262 257 253 247 240 235 229 235 236 233 229 226 219 217 206 222 230 222 224 224 219 216 213 215 221 222 222 226 226 224 227 226 225 221 227 235 232 229 230 231 231 230 222
273 266 250 253 264 240 226 236 250 266 284 291 278 274 276 279 283 274 267 261 265 258 246 247 233 230 232 236 237 239 235 228 228 214 214 211 221 224 220 224 214 215 216 218 219 220 222 222 219 224 228 227 220 224 229 232 230 228 230 230 229 221
335 344 347 346 344 338 331 326 313 304 296 285 271 276 286 279 279 259 264 262 263 268 257 252 241 235 236 239 243 244 247 246 238 238 244 226 225 213 213 216 213 212 217 218 220 219 223 219 220 222 225 223 219 223 229 233 232 231 230 231 229 223
343 335 331 335 333 334 330 327 325 319 305 298 294 267 270 286 286 265 258 264 258 268 263 256 248 246 249 248 251 256 251 245 243 238 239 229 233 228 223 215 216 219 217 222 219 220 217 219 220 225 226 226 221 222 226 230 231 231 229 227 225 221
328 329 331 335 334 329 331 335 335 325 318 314 317 312 296 285 268 267 265 261 261 256 261 258 260 256 255 259 257 251 246 239 232 229 233 224 229 233 230 221 216 218 213 223 219 220 215 218 225 226 228 229 224 222 229 228 230 232 230 229 225 220
327 328 331 330 334 338 336 338 339 340 337 333 330 330 324 306 291 290 281 276 264 263 267 278 274 268 262 254 253 252 250 245 242 237 228 221 226 220 220 219 213 217 223 225 220 219 211 217 223 218 216 219 222 222 228 227 228 227 229 227 225 220
328 328 329 334 340 339 339 339 338 337 333 327 328 328 325 336 305 291 288 275 269 274 282 282 285 278 268 261 254 252 250 246 239 231 231 233 234 237 232 229 219 217 222 219 221 218 215 222 222 216 214 212 216 220 225 228 230 226 226 225 224 222
328 334 340 339 339 336 332 329 327 328 325 327 329 329 329 333 314 299 280 280 279 285 287 285 278 276 269 260 261 259 252 245 237 234 237 239 235 236 235 224 227 227 225 223 219 219 220 223 220 217 209 207 217 218 221 222 226 222 221 220 217 216
343 338 334 329 328 329 330 330 328 326 325 327 328 328 328 329 321 308 301 289 298 295 290 287 286 282 274 270 263 256 249 243 234 236 235 237 236 233 222 224 226 227 221 222 221 222 220 221 216 213 204 209 221 217 217 219 223 220 221 219 217 216
327 318 319 322 322 325 319 318 319 320 322 325 320 322 328 326 322 316 308 308 305 297 295 296 294 286 281 269 263 258 250 241 241 239 235 235 233 225 220 229 226 228 222 218 221 225 219 224 211 214 203 199 215 221 216 220 216 215 221 215 213 206
325 323 313 303 301 303 299 297 288 296 303 303 311 321 323 325 322 322 307 304 300 298 301 298 291 285 279 278 272 261 252 243 245 241 237 240 228 224 231 230 230 229 224 221 223 228 225 223 216 217 211 216 218 221 216 216 211 217 215 215 208 206
322 323 328 330 329 323 328 325 325 318 315 323 324 321 320 321 315 316 309 306 303 303 304 301 293 289 289 285 280 270 258 250 256 250 239 230 229 224 228 226 228 229 226 227 223 228 229 225 214 217 216 219 215 212 213 210 211 213 214 210 204 200
317 314 314 316 323 327 330 325 331 335 327 325 325 328 330 327 327 324 326 325 324 320 312 304 298 291 290 288 282 272 265 258 249 251 241 235 241 237 238 243 229 233 226 224 221 224 234 227 215 219 219 208 204 209 209 205 205 212 209 206 201 198
298 298 299 309 316 319 322 324 332 328 325 330 330 330 327 333 331 330 327 322 322 321 319 315 305 300 295 290 284 273 266 263 259 253 234 240 238 236 231 234 227 226 225 222 218 221 231 227 215 216 216 211 205 202 206 199 206 211 210 207 199 195
308 302 312 310 311 302 308 327 329 327 322 322 324 329 327 330 322 319 317 315 318 316 315 309 302 297 296 292 282 276 272 265 264 259 226 232 240 237 235 230 238 231 222 221 222 216 225 229 217 216 215 212 209 200 200 197 204 212 207 203 191 187
321 314 322 323 327 330 334 332 334 331 325 324 324 325 323 323 321 324 322 316 313 310 307 301 294 287 285 284 279 274 275 269 260 261 232 240 244 248 242 231 234 239 230 228 225 219 222 229 221 213 211 209 207 204 197 193 200 201 198 182 184 177
335 337 338 335 323 323 329 332 336 330 323 321 323 321 319 317 317 312 309 306 306 305 303 299 296 288 282 281 281 276 268 273 275 257 241 245 237 250 241 233 231 234 234 219 222 221 217 221 222 207 206 205 209 207 195 193 191 199 185 177 175 173
313 303 301 301 303 310 317 329 330 323 320 319 320 313 310 310 310 310 307 308 307 306 303 299 288 290 286 270 276 281 277 261 256 258 243 247 246 245 247 232 231 230 235 217 217 215 221 213 217 215 208 208 209 210 197 194 195 179 168 183 186 186
307 302 297 289 291 296 301 307 305 296 306 312 305 300 307 308 308 307 306 303 302 301 300 297 295 280 281 286 280 283 277 264 251 249 244 247 240 241 245 240 235 235 235 226 213 214 220 213 215 213 215 214 211 211 198 185 189 181 182 178 177 169
296 289 286 292 290 286 278 282 288 295 300 298 291 299 302 303 303 302 300 298 298 297 296 295 292 292 288 284 275 269 277 274 255 252 236 235 238 238 244 238 236 234 240 235 229 222 219 215 216 210 212 219 216 209 189 195 188 175 166 171 179 182
264 279 288 290 285 271 270 261 278 289 295 292 301 311 313 313 312 307 302 298 293 293 293 290 290 286 284 279 279 269 267 270 249 247 228 226 228 236 240 239 225 226 230 229 235 228 223 220 213 214 210 214 214 194 190 186 175 174 179 179 178 171
302 305 300 302 307 307 303 277 274 281 281 286 307 308 311 312 314 312 303 298 294 292 290 291 286 285 283 280 267 269 263 262 237 245 239 212 230 227 237 238 215 223 224 224 224 222 218 210 209 207 210 209 207 200 187 177 176 178 167 166 171 168
299 293 300 304 302 302 307 301 289 297 296 301 300 298 301 303 306 303 297 296 295 291 293 295 291 282 279 279 264 253 254 248 239 236 234 211 225 224 230 234 223 231 229 232 226 218 211 201 200 204 199 199 194 188 180 174 173 171 171 167 171 170
327 321 319 312 313 305 304 310 305 286 295 303 303 299 301 305 302 298 295 294 296 296 294 289 289 294 287 275 273 262 258 249 242 239 238 220 219 223 227 226 223 228 232 235 231 222 205 199 200 194 185 186 177 171 174 168 174 170 164 155 157 156
323 316 317 313 317 320 309 307 306 307 304 302 306 308 307 302 298 295 295 294 296 292 294 291 285 285 284 276 260 265 263 251 237 237 233 221 215 213 224 218 221 223 221 231 227 219 212 206 202 194 185 185 176 175 170 168 159 163 159 159 160 163
310 306 304 301 309 309 305 304 306 312 312 310 313 315 316 310 309 304 298 296 295 289 288 280 279 278 279 280 270 249 244 245 239 239 248 244 222 218 219 218 229 226 228 232 226 213 222 216 208 209 192 178 171 165 161 163 167 161 167 168 163 156
308 310 309 306 312 312 310 308 306 309 304 303 303 304 303 301 303 301 297 298 295 290 291 284 278 272 271 269 272 277 273 246 235 235 240 256 240 237 237 233 236 226 218 231 237 227 227 229 228 160 162 165 163 163 162 164 163 170 162 168 168 160
312 307 304 307 314 310 308 305 309 316 312 308 304 304 301 300 299 295 292 295 294 291 290 286 284 277 266 265 267 267 271 285 269 248 245 243 245 244 242 235 239 226 198 203 220 209 160 144 164 167 170 168 168 166 164 169 174 173 169 171 164 166
319 317 312 312 310 305 304 303 305 315 309 310 311 309 304 301 298 296 294 295 291 293 288 279 277 279 274 270 258 258 264 268 275 275 256 245 237 235 226 221 219 207 211 210 195 185 194 188 186 183 177 174 171 169 168 171 176 174 173 176 165 165
312 309 309 309 308 307 305 302 306 313 310 314 316 313 309 306 301 294 293 293 294 291 287 283 279 273 267 268 264 259 249 253 256 267 274 260 244 238 230 223 220 212 199 196 200 201 197 199 194 191 183 176 174 172 170 171 177 178 176 171 167 173
306 305 305 303 302 301 301 302 313 326 321 319 314 310 305 302 299 290 285 289 291 292 290 287 279 275 270 258 253 252 249 247 248 252 257 264 261 252 247 239 224 213 205 207 201 203 205 204 197 196 191 182 177 173 171 172 176 179 180 171 168 164
305 304 304 302 301 303 307 308 320 325 318 315 312 309 307 303 299 294 287 282 279 277 279 280 278 272 267 264 254 249 244 245 244 241 248 246 247 244 240 232 233 227 221 214 209 204 201 199 198 197 191 179 174 174 172 172 172 178 174 168 165 163
292 294 297 298 311 317 313 306 313 316 313 313 313 312 308 306 302 298 293 294 289 280 275 273 273 267 261 260 257 245 241 241 239 239 242 244 244 245 243 242 223 216 219 211 202 199 198 201 203 199 181 174 176 173 174 172 176 172 169 157 156 160